Overview Statistics Trail Chart Weather Telemetry Raw packets
 

This is the latest recevied weather packets stored in our database for station/object KI5UTS-13. If no packets are shown the sender has not sent any weather packets the latest 10 day(s).

<< 23 24 25 26 27 28 29 >>
Time Temp. Humidity Pressure Rain* Wind** Luminosity Snow
1788392608 30.56° C 79% 1016.5 hPa 0 mm - 21 W/m² -
1788392308 30.56° C 79% 1016.5 hPa 0 mm - 26 W/m² -
1788392008 31.11° C 78% 1016.5 hPa 0 mm - 30 W/m² -
1788391706 31.11° C 77% 1016.5 hPa 0 mm - 36 W/m² -
1788391401 31.67° C 75% 1016.4 hPa 0 mm - 48 W/m² -
1788391100 31.11° C 75% 1016.4 hPa 0 mm - 46 W/m² -
1788390790 31.67° C 73% 1016.4 hPa 0 mm - 38 W/m² -
1788390485 31.67° C 72% 1016.2 hPa 0 mm - 51 W/m² -
1788390184 32.22° C 69% 1016.4 hPa 0 mm - 69 W/m² -
1788389879 32.78° C 68% 1016.5 hPa 0 mm - 117 W/m² -
1788389574 32.78° C 68% 1016.7 hPa 0 mm - 177 W/m² -
1788389273 32.78° C 70% 1016.4 hPa 0 mm - 112 W/m² -
1788388968 32.78° C 69% 1016.4 hPa 0 mm - 104 W/m² -
1788388664 32.78° C 69% 1016.5 hPa 0 mm - 254 W/m² -
1788388363 32.78° C 66% 1016.4 hPa 0 mm - 272 W/m² -
1788388056 32.78° C 67% 1016.6 hPa 0 mm - 294 W/m² -
1788387750 33.33° C 66% 1016.6 hPa 0 mm - 316 W/m² -
1788387445 33.33° C 67% 1016.6 hPa 0 mm - 359 W/m² -
1788387145 32.78° C 66% 1016.5 hPa 0 mm - 416 W/m² -
1788386840 33.33° C 68% 1016.6 hPa 0 mm - 429 W/m² -
1788386539 32.78° C 68% 1016.8 hPa 0 mm - 462 W/m² -
1788386235 33.33° C 70% 1017 hPa 0 mm - 449 W/m² -
1788385930 32.78° C 72% 1016.8 hPa 0 mm - 510 W/m² -
1788385626 32.78° C 74% 1016.9 hPa 0 mm - 515 W/m² -
1788385324 32.78° C 74% 1017.1 hPa 0 mm - 509 W/m² -

* Rain latest hour (hover to see other rain measurements)
** Current wind speed in m/s (hover to see current wind gust speed)